Rome, NY

7:12 PM EDT on June 20, 2018 (GMT -0400)
Griffiss

Weather History for KRME - August, 2017

Change the Weather History Date:

Sunday, August 13, 2017

  Actual Average Record
Temperature  
Mean Temperature 68 °F -  
Max Temperature 79 °F 80 °F 93 °F (1988)
Min Temperature 55 °F 57 °F 46 °F (1992)
Cooling Degree Days 2    
Growing Degree Days 18 (Base 50)    
Moisture  
Dew Point 59 °F    
Average Humidity 78    
Maximum Humidity 100    
Minimum Humidity 42    
Precipitation  
Precipitation 0.00 in - - ()
Sea Level Pressure  
Sea Level Pressure 29.96 in    
Wind  
Wind Speed 5 mph (WNW)    
Max Wind Speed 14 mph    
Max Gust Speed -    
Visibility 10 miles    
Events      
Averages and records for this station are not official NWS values.
T = Trace of Precipitation, MM = Missing Value Source: NWS Daily Summary

Daily Weather History Graph

Daily Weather History Graph

Search for Another Location

Airport or City:

Astronomy

Aug. 13, 2017 Rise Set
Actual Time 6:05 AM EDT 8:06 PM EDT
Civil Twilight 5:34 AM EDT 8:37 PM EDT
Nautical Twilight 4:56 AM EDT 9:15 PM EDT
Astronomical Twilight 4:14 AM EDT 9:57 PM EDT
Moon 11:29 PM EDT (8/13) 12:11 PM EDT (8/13)
Length of Visible Light 15h 03m
Length of Day
14h 01m
Waning Gibbous, 65% of the Moon is Illuminated
Aug 13
Waning Gibbous
Aug 14
Last Quarter
Aug 21
New
Aug 29
First Quarter
Sep 6
Full

Hourly Weather History & Observations

Time (EDT) Temp. Dew Point Humidity Pressure Visibility Wind Dir Wind Speed Gust Speed Precip Events Conditions
12:44 AM 64.0 °F 63.0 °F 96% 29.88 in 10.0 mi Calm Calm - N/A   Mostly Cloudy
12:53 AM 64.0 °F 63.0 °F 96% 29.87 in 10.0 mi Calm Calm - N/A   Overcast
1:53 AM 64.9 °F 64.0 °F 97% 29.86 in 10.0 mi WNW 3.5 mph - N/A   Mostly Cloudy
2:45 AM 66.0 °F 64.0 °F 93% 29.89 in 10.0 mi WSW 5.8 mph - N/A   Overcast
2:53 AM 66.0 °F 63.0 °F 90% 29.87 in 10.0 mi WSW 8.1 mph - N/A   Overcast
3:53 AM 64.9 °F 63.0 °F 93% 29.89 in 10.0 mi West 5.8 mph - N/A   Overcast
4:21 AM 64.0 °F 62.1 °F 93% 29.90 in 10.0 mi West 5.8 mph - N/A   Mostly Cloudy
4:33 AM 64.0 °F 62.1 °F 93% 29.90 in 10.0 mi West 5.8 mph - N/A   Mostly Cloudy
4:53 AM 64.0 °F 62.1 °F 93% 29.90 in 10.0 mi West 6.9 mph - N/A   Overcast
5:38 AM 63.0 °F 63.0 °F 100% 29.92 in 10.0 mi NW 5.8 mph - N/A   Overcast
5:53 AM 63.0 °F 62.1 °F 97% 29.91 in 9.0 mi NW 4.6 mph - N/A   Overcast
6:53 AM 62.1 °F 62.1 °F 100% 29.94 in 1.5 mi WNW 5.8 mph - N/A   Overcast
7:05 AM 62.1 °F 62.1 °F 100% 29.95 in 3.0 mi West 6.9 mph - N/A   Overcast
7:53 AM 63.0 °F 62.1 °F 97% 29.96 in 10.0 mi West 5.8 mph - N/A   Overcast
8:11 AM 64.0 °F 62.1 °F 93% 29.97 in 10.0 mi WNW 6.9 mph - N/A   Scattered Clouds
8:53 AM 66.9 °F 62.1 °F 84% 29.97 in 10.0 mi West 5.8 mph - N/A   Clear
9:45 AM 69.1 °F 61.0 °F 75% 29.99 in 10.0 mi Variable 6.9 mph - N/A   Mostly Cloudy
9:53 AM 69.1 °F 61.0 °F 75% 29.98 in 10.0 mi NW 5.8 mph - N/A   Scattered Clouds
10:53 AM 72.0 °F 59.0 °F 64% 29.99 in 10.0 mi Variable 4.6 mph - N/A   Scattered Clouds
11:53 AM 73.9 °F 57.0 °F 55% 30.00 in 10.0 mi NNW 3.5 mph - N/A   Mostly Cloudy
12:53 PM 75.9 °F 59.0 °F 56% 29.99 in 10.0 mi West 6.9 mph - N/A   Mostly Cloudy
1:53 PM 77.0 °F 57.9 °F 52% 29.98 in 10.0 mi WNW 5.8 mph - N/A   Scattered Clouds
2:53 PM 77.0 °F 55.9 °F 48% 29.98 in 10.0 mi WSW 8.1 mph - N/A   Scattered Clouds
3:53 PM 78.1 °F 55.9 °F 46% 29.99 in 10.0 mi WNW 12.7 mph - N/A   Scattered Clouds
4:53 PM 78.1 °F 53.1 °F 42% 30.00 in 10.0 mi West 13.8 mph - N/A   Clear
5:53 PM 75.9 °F 53.1 °F 45% 30.00 in 10.0 mi WNW 11.5 mph - N/A   Clear
6:53 PM 73.9 °F 53.1 °F 48% 30.02 in 10.0 mi WNW 9.2 mph - N/A   Clear
7:53 PM 68.0 °F 53.1 °F 59% 30.02 in 10.0 mi NNW 4.6 mph - N/A   Clear
8:53 PM 66.0 °F 53.1 °F 63% 30.02 in 10.0 mi Calm Calm - N/A   Clear
9:53 PM 60.1 °F 54.0 °F 80% 30.04 in 10.0 mi NE 3.5 mph - N/A   Clear
10:53 PM 57.9 °F 54.0 °F 87% 30.04 in 10.0 mi Calm Calm - N/A   Clear
11:53 PM 55.9 °F 54.0 °F 93% 30.05 in 10.0 mi East 3.5 mph - N/A   Clear